Weather History for Cairo, IL

Change the Weather History Date:

Sunday, February 16, 2014

  Actual Average Record
Temperature  
Mean Temperature 32 °F -  
Max Temperature 41 °F 45 °F 71 °F (1961)
Min Temperature 23 °F 30 °F 3 °F (1958)
Degree Days  
Heating Degree Days 33    
Moisture  
Dew Point 27 °F    
Average Humidity 78    
Maximum Humidity 89    
Minimum Humidity 67    
Precipitation  
Precipitation 0.00 in - - ()
Sea Level Pressure  
Sea Level Pressure 30.15 in    
Wind  
Wind Speed 5 mph (NNE)    
Max Wind Speed 15 mph    
Max Gust Speed 18 mph    
Visibility 8 miles    
Events      
Averages and records for this station are not official NWS values.
T = Trace of Precipitation, MM = Missing Value Source: NWS Daily Summary

Daily Weather History Graph

Daily Weather History Graph

Search for Another Location

Airport:

Trip Planner

Search our weather history database for the weather conditions in past years. The results will help you decide how hot, cold, wet, or windy it might be!

Date:

Astronomy

Feb. 16, 2014 Rise Set
Actual Time 6:44 AM CST 5:38 PM CST
Civil Twilight 6:17 AM CST 6:04 PM CST
Nautical Twilight 5:47 AM CST 6:35 PM CST
Astronomical Twilight 5:17 AM CST 7:05 PM CST
Moon 7:30 PM CST (2/16) 7:17 AM CST (2/16)
Length of Visible Light 11h 46m
Length of Day
10h 53m
Full, 97% of the Moon is Illuminated
Feb 16
Full
Feb 22
Last Quarter
Mar 1
New
Mar 8
First Quarter
Mar 16
Full

Hourly Weather History & Observations

Time (CST) Temp. Windchill Dew Point Humidity Pressure Visibility Wind Dir Wind Speed Gust Speed Precip Events Conditions
12:15 AM 27.3 °F - 22.1 °F 81% 30.03 in 7.0 mi Calm Calm - N/A   Clear
12:35 AM 27.3 °F - 22.5 °F 82% 30.02 in 7.0 mi Calm Calm - N/A   Clear
12:55 AM 28.6 °F - 24.1 °F 83% 30.02 in 7.0 mi Calm Calm - N/A   Clear
1:15 AM 26.2 °F 20.7 °F 21.9 °F 84% 30.03 in 7.0 mi NNE 4.6 mph - N/A   Clear
1:35 AM 26.6 °F - 22.6 °F 85% 30.05 in 5.0 mi Calm Calm - N/A   Haze
1:55 AM 25.7 °F - 21.9 °F 86% 30.05 in 5.0 mi Calm Calm - N/A   Clear
2:15 AM 26.8 °F - 23.0 °F 86% 30.05 in 5.0 mi Calm Calm - N/A   Clear
2:35 AM 26.8 °F 22.8 °F 23.0 °F 86% 30.04 in 7.0 mi SSE 3.5 mph - N/A   Clear
2:55 AM 27.1 °F 23.2 °F 23.5 °F 86% 30.03 in 7.0 mi SSE 3.5 mph - N/A   Clear
3:15 AM 26.4 °F 22.4 °F 22.8 °F 86% 30.02 in 5.0 mi South 3.5 mph - N/A   Clear
3:35 AM 25.9 °F - 22.3 °F 86% 30.03 in 5.0 mi Calm Calm - N/A   Clear
3:55 AM 24.8 °F - 21.4 °F 87% 30.03 in 4.0 mi Calm Calm - N/A   Clear
4:15 AM 26.4 °F - 23.0 °F 87% 30.03 in 4.0 mi Calm Calm - N/A   Clear
4:35 AM 25.5 °F - 22.1 °F 87% 30.03 in 5.0 mi Calm Calm - N/A   Clear
4:55 AM 23.7 °F 19.3 °F 20.5 °F 87% 30.05 in 3.0 mi West 3.5 mph - N/A   Clear
5:15 AM 25.2 °F 19.5 °F 21.9 °F 87% 30.05 in 4.0 mi WNW 4.6 mph - N/A   Clear
5:35 AM 26.4 °F 22.4 °F 23.0 °F 87% 30.05 in 4.0 mi West 3.5 mph - N/A   Clear
5:55 AM 24.8 °F 20.5 °F 21.7 °F 88% 30.06 in 3.0 mi West 3.5 mph - N/A   Clear
6:15 AM 23.9 °F 19.5 °F 21.0 °F 89% 30.06 in 3.0 mi WNW 3.5 mph - N/A   Clear
6:35 AM 26.2 °F 20.7 °F 23.2 °F 88% 30.07 in 4.0 mi West 4.6 mph - N/A   Clear
6:55 AM 28.4 °F 21.2 °F 25.5 °F 89% 30.08 in 5.0 mi WSW 6.9 mph - N/A   Clear
7:15 AM 28.4 °F 21.2 °F 25.3 °F 88% 30.09 in 5.0 mi West 6.9 mph - N/A   Clear
7:35 AM 29.5 °F 23.4 °F 26.4 °F 88% 30.11 in 5.0 mi West 5.8 mph - N/A   Clear
7:55 AM 30.9 °F 25.2 °F 27.5 °F 87% 30.13 in 7.0 mi West 5.8 mph - N/A   Clear
8:15 AM 32.4 °F 27.9 °F 29.3 °F 88% 30.14 in 7.0 mi WNW 4.6 mph - N/A   Clear
8:35 AM 34.5 °F 28.6 °F 30.6 °F 85% 30.14 in 10.0 mi NNW 6.9 mph - N/A   Clear
8:55 AM 35.8 °F 29.4 °F 30.2 °F 80% 30.15 in 10.0 mi NNW 8.1 mph - N/A   Clear
9:15 AM 36.7 °F 29.9 °F 30.2 °F 77% 30.17 in 10.0 mi NNW 9.2 mph - N/A   Clear
9:35 AM 37.2 °F 30.0 °F 29.7 °F 74% 30.18 in 10.0 mi North 10.4 mph - N/A   Scattered Clouds
9:55 AM 36.9 °F 29.6 °F 29.3 °F 74% 30.19 in 10.0 mi North 10.4 mph - N/A   Mostly Cloudy
10:15 AM 36.9 °F 29.6 °F 28.8 °F 72% 30.20 in 10.0 mi North 10.4 mph - N/A   Overcast
10:35 AM 37.4 °F 30.3 °F 29.1 °F 72% 30.20 in 10.0 mi North 10.4 mph - N/A   Overcast
10:55 AM 38.7 °F 30.5 °F 30.0 °F 71% 30.21 in 7.0 mi North 13.8 mph - N/A   Scattered Clouds
11:15 AM 39.0 °F 30.6 °F 30.2 °F 71% 30.21 in 7.0 mi NNW 15.0 mph - N/A   Clear
11:35 AM 39.4 °F 32.7 °F 30.2 °F 70% 30.21 in 7.0 mi North 10.4 mph - N/A   Clear
11:55 AM 39.9 °F 32.9 °F 30.6 °F 69% 30.21 in 7.0 mi North 11.5 mph - N/A   Clear
12:15 PM 40.5 °F 34.1 °F 31.1 °F 69% 30.20 in 10.0 mi North 10.4 mph - N/A   Clear
12:35 PM 40.6 °F 33.4 °F 31.1 °F 69% 30.20 in 10.0 mi NNW 12.7 mph - N/A   Clear
12:55 PM 41.0 °F 35.8 °F 31.1 °F 68% 30.21 in 10.0 mi North 8.1 mph - N/A   Clear
1:15 PM 40.8 °F 35.0 °F 30.7 °F 67% 30.20 in 10.0 mi NNE 9.2 mph - N/A   Clear
1:35 PM 40.6 °F 34.8 °F 30.4 °F 67% 30.19 in 10.0 mi North 9.2 mph - N/A   Clear
1:55 PM 40.6 °F 35.4 °F 30.7 °F 68% 30.18 in 10.0 mi NE 8.1 mph - N/A   Clear
2:15 PM 40.5 °F 34.6 °F 30.4 °F 67% 30.19 in 10.0 mi NNE 9.2 mph - N/A   Clear
2:35 PM 40.1 °F 33.6 °F 30.2 °F 68% 30.19 in 10.0 mi NE 10.4 mph - N/A   Clear
2:55 PM 39.6 °F 34.0 °F 30.2 °F 69% 30.20 in 10.0 mi NE 8.1 mph - N/A   Clear
3:15 PM 39.7 °F 32.7 °F 30.0 °F 68% 30.20 in 10.0 mi NE 11.5 mph - N/A   Clear
3:35 PM 39.4 °F 32.7 °F 30.0 °F 69% 30.20 in 10.0 mi NE 10.4 mph - N/A   Clear
3:55 PM 39.6 °F 34.7 °F 29.5 °F 67% 30.20 in 10.0 mi NNE 6.9 mph - N/A   Clear
4:15 PM 38.3 °F 33.2 °F 28.9 °F 69% 30.20 in 10.0 mi NNE 6.9 mph - N/A   Clear
4:35 PM 38.3 °F 33.9 °F 29.3 °F 70% 30.21 in 10.0 mi NNE 5.8 mph - N/A   Clear
4:55 PM 37.4 °F 32.8 °F 28.8 °F 71% 30.20 in 10.0 mi NE 5.8 mph - N/A   Clear
5:15 PM 36.7 °F 31.2 °F 28.6 °F 72% 30.22 in 10.0 mi NE 6.9 mph - N/A   Clear
5:35 PM 36.5 °F 31.8 °F 28.4 °F 72% 30.23 in 10.0 mi North 5.8 mph - N/A   Clear
5:55 PM 35.6 °F 31.7 °F 28.0 °F 74% 30.23 in 10.0 mi NNE 4.6 mph - N/A   Clear
6:15 PM 35.1 °F 31.0 °F 27.7 °F 74% 30.24 in 10.0 mi North 4.6 mph - N/A   Clear
6:35 PM 34.3 °F 29.2 °F 27.3 °F 76% 30.24 in 10.0 mi NNE 5.8 mph - N/A   Clear
6:55 PM 33.8 °F 28.6 °F 27.3 °F 77% 30.23 in 10.0 mi NNE 5.8 mph - N/A   Clear
7:15 PM 33.1 °F 27.7 °F 26.6 °F 77% 30.23 in 10.0 mi NNE 5.8 mph - N/A   Clear
7:35 PM 32.9 °F 25.9 °F 26.6 °F 78% 30.22 in 10.0 mi NNE 8.1 mph - N/A   Clear
7:55 PM 32.7 °F 26.4 °F 26.6 °F 78% 30.22 in 10.0 mi NE 6.9 mph - N/A   Clear
8:15 PM 32.4 °F 26.0 °F 26.6 °F 79% 30.22 in 7.0 mi NNE 6.9 mph - N/A   Clear
8:35 PM 32.5 °F 25.5 °F 26.8 °F 79% 30.21 in 7.0 mi NE 8.1 mph - N/A   Clear
8:55 PM 32.5 °F 26.2 °F 27.1 °F 80% 30.22 in 7.0 mi NE 6.9 mph - N/A   Clear
9:15 PM 32.5 °F 27.1 °F 27.0 °F 80% 30.23 in 7.0 mi NE 5.8 mph - N/A   Clear
9:35 PM 32.9 °F 24.7 °F 27.1 °F 79% 30.21 in 7.0 mi NE 10.4 mph - N/A   Clear
9:55 PM 32.9 °F 24.1 °F 27.3 °F 80% 30.20 in 7.0 mi ENE 11.5 mph - N/A   Clear
10:15 PM 32.9 °F 23.7 °F 27.1 °F 79% 30.20 in 7.0 mi ENE 12.7 mph 17.3 mph N/A   Clear
10:35 PM 32.5 °F 23.2 °F 27.0 °F 80% 30.20 in 7.0 mi ENE 12.7 mph 18.4 mph N/A   Clear
10:55 PM 32.4 °F 23.5 °F 26.6 °F 79% 30.20 in 7.0 mi ENE 11.5 mph - N/A   Clear
11:15 PM 32.0 °F 23.0 °F 26.6 °F 80% 30.19 in 7.0 mi ENE 11.5 mph - N/A   Clear
11:35 PM 32.0 °F 24.8 °F 26.4 °F 80% 30.19 in 7.0 mi ENE 8.1 mph - N/A   Clear
11:55 PM 32.0 °F 24.8 °F 26.6 °F 80% 30.19 in 7.0 mi ENE 8.1 mph - N/A   Clear